Hot Springs, VA

7:00 PM EDT on October 16, 2017 (GMT -0400)
Ingalls

Weather History for KHSP - October, 2013

Change the Weather History Date:

Thursday, October 31, 2013

  Actual Average Record
Temperature  
Mean Temperature 55 °F -  
Max Temperature 57 °F 52 °F 71 °F (2003)
Min Temperature 53 °F 37 °F 28 °F (2012)
Degree Days  
Heating Degree Days 10    
Growing Degree Days 5 (Base 50)    
Moisture  
Dew Point 53 °F    
Average Humidity 90    
Maximum Humidity 100    
Minimum Humidity 82    
Precipitation  
Precipitation 0.02 in - - ()
Sea Level Pressure  
Sea Level Pressure 30.12 in    
Wind  
Wind Speed 10 mph (SSW)    
Max Wind Speed 21 mph    
Max Gust Speed 30 mph    
Visibility 10 miles    
Events Rain    
Averages and records for this station are not official NWS values.
T = Trace of Precipitation, MM = Missing Value Source: NWS Daily Summary

Daily Weather History Graph

Daily Weather History Graph

Search for Another Location

Airport or City:

Trip Planner

Search our weather history database for the weather conditions in past years. The results will help you decide how hot, cold, wet, or windy it might be!

Date:

Astronomy

Oct. 31, 2013 Rise Set
Actual Time 7:44 AM EDT 6:21 PM EDT
Civil Twilight 7:16 AM EDT 6:48 PM EDT
Nautical Twilight 6:45 AM EDT 7:19 PM EDT
Astronomical Twilight 6:15 AM EDT 7:50 PM EDT
Moon 4:34 AM EDT (10/31) 4:36 PM EDT (10/31)
Length of Visible Light 11h 31m
Length of Day
10h 37m
Waning Crescent, 10% of the Moon is Illuminated
Oct 31
Waning Crescent
Nov 3
New
Nov 10
First Quarter
Nov 17
Full
Nov 25
Last Quarter

Hourly Weather History & Observations

Time (EDT) Temp. Dew Point Humidity Pressure Visibility Wind Dir Wind Speed Gust Speed Precip Events Conditions
12:15 AM 55.4 °F 55.4 °F 100% 30.28 in 10.0 mi SSW 6.9 mph - N/A   Overcast
12:35 AM 55.4 °F 55.4 °F 100% 30.27 in 10.0 mi SW 6.9 mph - N/A   Mostly Cloudy
12:55 AM 55.4 °F 55.4 °F 100% 30.27 in 10.0 mi South 3.5 mph - N/A   Overcast
1:15 AM 55.4 °F 55.4 °F 100% 30.27 in 10.0 mi SSW 5.8 mph - N/A   Overcast
1:35 AM 55.4 °F 55.4 °F 100% 30.27 in 10.0 mi SW 6.9 mph - N/A   Overcast
1:55 AM 57.2 °F 53.6 °F 88% 30.26 in 10.0 mi SW 9.2 mph - N/A   Scattered Clouds
2:15 AM 57.2 °F 53.6 °F 88% 30.27 in 10.0 mi SSW 10.4 mph 18.4 mph N/A   Scattered Clouds
2:35 AM 57.2 °F 53.6 °F 88% 30.26 in 10.0 mi SSW 10.4 mph - N/A   Mostly Cloudy
2:55 AM 57.2 °F 53.6 °F 88% 30.26 in 10.0 mi SW 11.5 mph 16.1 mph N/A   Overcast
3:15 AM 57.2 °F 53.6 °F 88% 30.25 in 10.0 mi SW 11.5 mph - N/A   Overcast
3:35 AM 57.2 °F 53.6 °F 88% 30.25 in 10.0 mi SW 10.4 mph - N/A   Overcast
3:55 AM 57.2 °F 53.6 °F 88% 30.24 in 10.0 mi SSW 9.2 mph - N/A   Mostly Cloudy
4:15 AM 57.2 °F 53.6 °F 88% 30.23 in 10.0 mi SW 10.4 mph - N/A   Mostly Cloudy
4:35 AM 57.2 °F 53.6 °F 88% 30.22 in 10.0 mi SW 10.4 mph 17.3 mph N/A   Scattered Clouds
4:55 AM 57.2 °F 53.6 °F 88% 30.22 in 10.0 mi SW 10.4 mph 18.4 mph N/A   Clear
5:15 AM 57.2 °F 53.6 °F 88% 30.22 in 10.0 mi SW 10.4 mph 16.1 mph N/A   Clear
5:35 AM 57.2 °F 53.6 °F 88% 30.22 in 10.0 mi WSW 13.8 mph 19.6 mph N/A   Scattered Clouds
5:55 AM 57.2 °F 53.6 °F 88% 30.23 in 10.0 mi SW 16.1 mph 20.7 mph N/A   Overcast
6:15 AM 57.2 °F 53.6 °F 88% 30.23 in 10.0 mi WSW 15.0 mph - N/A   Overcast
6:35 AM 57.2 °F 53.6 °F 88% 30.22 in 10.0 mi WSW 12.7 mph 20.7 mph N/A   Mostly Cloudy
6:55 AM 57.2 °F 51.8 °F 82% 30.21 in 10.0 mi SW 13.8 mph 20.7 mph N/A   Mostly Cloudy
7:15 AM 57.2 °F 51.8 °F 82% 30.21 in 10.0 mi SW 9.2 mph 17.3 mph N/A   Mostly Cloudy
7:35 AM 57.2 °F 51.8 °F 82% 30.21 in 10.0 mi SSW 11.5 mph 20.7 mph N/A   Overcast
7:55 AM 57.2 °F 53.6 °F 88% 30.21 in 10.0 mi SSW 11.5 mph 24.2 mph N/A   Mostly Cloudy
8:15 AM 57.2 °F 53.6 °F 88% 30.21 in 10.0 mi SSW 15.0 mph 23.0 mph N/A   Scattered Clouds
8:35 AM 57.2 °F 51.8 °F 82% 30.20 in 10.0 mi SSW 11.5 mph 19.6 mph N/A   Clear
8:55 AM 57.2 °F 51.8 °F 82% 30.21 in 10.0 mi SW 10.4 mph 18.4 mph N/A   Clear
9:15 AM 57.2 °F 51.8 °F 82% 30.21 in 10.0 mi SSW 9.2 mph - N/A   Clear
9:35 AM 57.2 °F 51.8 °F 82% 30.20 in 10.0 mi SSW 12.7 mph - N/A   Scattered Clouds
9:55 AM 57.2 °F 51.8 °F 82% 30.20 in 10.0 mi SSW 11.5 mph 21.9 mph N/A   Scattered Clouds
10:15 AM 57.2 °F 51.8 °F 82% 30.19 in 10.0 mi SSW 10.4 mph 20.7 mph N/A   Clear
10:35 AM 57.2 °F 51.8 °F 82% 30.17 in 10.0 mi South 11.5 mph 20.7 mph N/A   Clear
10:55 AM 57.2 °F 51.8 °F 82% 30.17 in 10.0 mi South 9.2 mph 16.1 mph N/A   Clear
11:15 AM 57.2 °F 53.6 °F 88% 30.17 in 10.0 mi South 9.2 mph - N/A   Scattered Clouds
11:35 AM 57.2 °F 53.6 °F 88% 30.16 in 10.0 mi South 9.2 mph - N/A   Scattered Clouds
11:55 AM 57.2 °F 53.6 °F 88% 30.15 in 10.0 mi South 12.7 mph 17.3 mph N/A   Clear
12:15 PM 57.2 °F 53.6 °F 88% 30.15 in 10.0 mi South 12.7 mph 17.3 mph N/A   Scattered Clouds
12:35 PM 57.2 °F 53.6 °F 88% 30.14 in 10.0 mi South 16.1 mph 20.7 mph N/A   Clear
12:55 PM 57.2 °F 53.6 °F 88% 30.13 in 10.0 mi South 10.4 mph 18.4 mph N/A   Scattered Clouds
1:15 PM 57.2 °F 53.6 °F 88% 30.12 in 10.0 mi South 11.5 mph 18.4 mph N/A   Scattered Clouds
1:35 PM 57.2 °F 53.6 °F 88% 30.10 in 10.0 mi South 10.4 mph 20.7 mph N/A   Mostly Cloudy
1:55 PM 57.2 °F 53.6 °F 88% 30.09 in 10.0 mi South 10.4 mph 20.7 mph N/A   Mostly Cloudy
2:15 PM 57.2 °F 53.6 °F 88% 30.07 in 10.0 mi SSW 10.4 mph 20.7 mph N/A   Mostly Cloudy
2:35 PM 57.2 °F 53.6 °F 88% 30.07 in 10.0 mi South 11.5 mph 20.7 mph N/A   Mostly Cloudy
2:55 PM 57.2 °F 53.6 °F 88% 30.06 in 10.0 mi South 11.5 mph 19.6 mph N/A   Scattered Clouds
3:15 PM 57.2 °F 53.6 °F 88% 30.06 in 10.0 mi South 13.8 mph 20.7 mph N/A   Scattered Clouds
3:35 PM 57.2 °F 53.6 °F 88% 30.05 in 10.0 mi SSW 12.7 mph 20.7 mph N/A   Scattered Clouds
3:55 PM 57.2 °F 51.8 °F 82% 30.05 in 10.0 mi SSW 13.8 mph 25.3 mph N/A   Mostly Cloudy
4:15 PM 55.4 °F 51.8 °F 88% 30.05 in 10.0 mi SSW 15.0 mph 28.8 mph N/A Rain Rain
4:35 PM 55.4 °F 51.8 °F 88% 30.05 in 10.0 mi SSW 15.0 mph 21.9 mph N/A   Drizzle
4:55 PM 53.6 °F 51.8 °F 94% 30.03 in 10.0 mi SSW 11.5 mph 20.7 mph 0.01 in Rain Light Rain
5:15 PM 53.6 °F 51.8 °F 94% 30.02 in 10.0 mi South 15.0 mph 20.7 mph 0.01 in   Drizzle
5:35 PM 53.6 °F 51.8 °F 94% 30.02 in 10.0 mi South 13.8 mph 21.9 mph 0.01 in   Light Drizzle
5:55 PM 53.6 °F 51.8 °F 94% 30.03 in 10.0 mi SSW 12.7 mph 18.4 mph N/A   Mostly Cloudy
6:15 PM 53.6 °F 51.8 °F 94% 30.01 in 10.0 mi South 9.2 mph 18.4 mph N/A   Mostly Cloudy
6:35 PM 53.6 °F 51.8 °F 94% 30.01 in 10.0 mi South 8.1 mph - N/A   Mostly Cloudy
6:55 PM 53.6 °F 51.8 °F 94% 30.01 in 10.0 mi SSW 16.1 mph 21.9 mph N/A   Mostly Cloudy
7:15 PM 53.6 °F 51.8 °F 94% 29.99 in 10.0 mi South 11.5 mph 19.6 mph N/A   Mostly Cloudy
7:35 PM 53.6 °F 51.8 °F 94% 30.00 in 10.0 mi SSW 10.4 mph 16.1 mph N/A   Mostly Cloudy
7:55 PM 53.6 °F 51.8 °F 94% 30.00 in 10.0 mi South 16.1 mph 24.2 mph N/A   Overcast
8:15 PM 53.6 °F 51.8 °F 94% 29.98 in 10.0 mi South 9.2 mph 20.7 mph N/A   Overcast
8:35 PM 53.6 °F 51.8 °F 94% 29.98 in 10.0 mi SSW 12.7 mph 18.4 mph N/A   Mostly Cloudy
8:55 PM 53.6 °F 51.8 °F 94% 29.98 in 10.0 mi SSW 13.8 mph 21.9 mph N/A   Overcast
9:15 PM 53.6 °F 51.8 °F 94% 29.96 in 10.0 mi SSW 15.0 mph 19.6 mph N/A   Overcast
9:35 PM 53.6 °F 53.6 °F 100% 29.95 in 7.0 mi South 16.1 mph 23.0 mph N/A   Overcast
9:55 PM 53.6 °F 53.6 °F 100% 29.94 in 10.0 mi South 13.8 mph 23.0 mph N/A   Mostly Cloudy
10:15 PM 53.6 °F 53.6 °F 100% 29.92 in 10.0 mi South 16.1 mph 23.0 mph N/A   Overcast
10:35 PM 53.6 °F 53.6 °F 100% 29.90 in 5.0 mi South 15.0 mph 25.3 mph N/A   Overcast
10:55 PM 53.6 °F 53.6 °F 100% 29.89 in 3.0 mi South 12.7 mph 23.0 mph N/A   Overcast
11:15 PM 53.6 °F 53.6 °F 100% 29.90 in 3.0 mi South 13.8 mph 21.9 mph N/A   Overcast
11:35 PM 53.6 °F 53.6 °F 100% 29.85 in 7.0 mi South 13.8 mph 26.5 mph N/A   Drizzle
11:55 PM 53.6 °F 53.6 °F 100% 29.86 in 1.8 mi South 20.7 mph 29.9 mph N/A Rain Light Rain